TimeEDT,TemperatureF,Dew PointF,Humidity,Sea Level PressureIn,VisibilityMPH,Wind Direction,Wind SpeedMPH,Gust SpeedMPH,PrecipitationIn,Events,Conditions,WindDirDegrees,DateUTC
12:54 AM,54.0,52.0,93,30.21,10.0,Calm,Calm,-,N/A,,Clear,0,2013-08-24 04:54:00
1:54 AM,53.1,51.1,93,30.22,10.0,Calm,Calm,-,N/A,,Clear,0,2013-08-24 05:54:00
2:54 AM,52.0,50.0,93,30.23,10.0,Calm,Calm,-,N/A,,Clear,0,2013-08-24 06:54:00
3:54 AM,51.1,48.9,92,30.25,10.0,East,4.6,-,N/A,,Clear,90,2013-08-24 07:54:00
4:54 AM,50.0,48.0,93,30.27,10.0,Calm,Calm,-,N/A,,Clear,0,2013-08-24 08:54:00
5:54 AM,50.0,48.0,93,30.30,0.5,Calm,Calm,-,N/A,Fog,Fog,0,2013-08-24 09:54:00
6:08 AM,50.0,48.2,94,30.30,0.8,Calm,Calm,-,N/A,,Scattered Clouds,0,2013-08-24 10:08:00
6:54 AM,51.1,48.9,92,30.32,0.8,ENE,3.5,-,N/A,,Partly Cloudy,70,2013-08-24 10:54:00
7:05 AM,51.8,48.2,88,30.32,10.0,ENE,3.5,-,N/A,,Partly Cloudy,70,2013-08-24 11:05:00
7:24 AM,51.8,50.0,94,30.33,0.8,ENE,3.5,-,N/A,,Partly Cloudy,70,2013-08-24 11:24:00
7:38 AM,53.6,50.0,88,30.33,10.0,ENE,3.5,-,N/A,,Partly Cloudy,70,2013-08-24 11:38:00
7:54 AM,53.1,51.1,93,30.33,10.0,Calm,Calm,-,N/A,,Partly Cloudy,0,2013-08-24 11:54:00
8:54 AM,59.0,52.0,78,30.34,10.0,Calm,Calm,-,N/A,,Clear,0,2013-08-24 12:54:00
9:54 AM,64.9,53.1,65,30.35,10.0,Calm,Calm,-,N/A,,Clear,0,2013-08-24 13:54:00
10:54 AM,69.1,53.1,57,30.35,10.0,NE,3.5,-,N/A,,Clear,40,2013-08-24 14:54:00
11:54 AM,72.0,50.0,46,30.34,10.0,NE,6.9,-,N/A,,Clear,50,2013-08-24 15:54:00
12:54 PM,73.0,48.0,41,30.33,10.0,NNW,6.9,-,N/A,,Clear,330,2013-08-24 16:54:00
1:54 PM,75.0,45.0,34,30.32,10.0,Calm,Calm,-,N/A,,Clear,0,2013-08-24 17:54:00
2:54 PM,75.9,44.1,32,30.31,10.0,NNE,4.6,-,N/A,,Clear,30,2013-08-24 18:54:00
3:54 PM,78.1,50.0,37,30.30,10.0,NNE,5.8,-,N/A,,Clear,20,2013-08-24 19:54:00
4:54 PM,77.0,51.1,40,30.29,10.0,Calm,Calm,-,N/A,,Clear,0,2013-08-24 20:54:00
5:54 PM,77.0,51.1,40,30.28,10.0,North,4.6,-,N/A,,Clear,10,2013-08-24 21:54:00
6:54 PM,73.9,50.0,43,30.29,10.0,WNW,4.6,-,N/A,,Clear,290,2013-08-24 22:54:00
7:54 PM,69.1,50.0,51,30.30,10.0,West,3.5,-,N/A,,Clear,270,2013-08-24 23:54:00
8:54 PM,62.1,54.0,75,30.32,10.0,Calm,Calm,-,N/A,,Clear,0,2013-08-25 00:54:00
9:54 PM,61.0,55.0,81,30.35,10.0,Calm,Calm,-,N/A,,Clear,0,2013-08-25 01:54:00
10:54 PM,59.0,54.0,83,30.34,10.0,East,3.5,-,N/A,,Clear,80,2013-08-25 02:54:00
11:54 PM,57.0,54.0,89,30.34,10.0,Calm,Calm,-,N/A,,Clear,0,2013-08-25 03:54:00